Regional Weather Roundup
Issued by NWS Newport/Morehead, NC

Current Version | Previous Version | Graphics & Text | Print | Product List | Glossary On
Versions: 1 2 3 4 5 6 7 8 9 10 11 12 13 14 15 16 17 18 19 20 21 22 23 24 25 26 27 28 29 30 31 32 33 34 35 36 37 38 39 40 41 42 43 44 45 46 47 48 49 50
361 ASUS42 KMHX 161525 RWRMHX WEATHER ROUNDUP FOR EASTERN NORTH CAROLINA NATIONAL WEATHER SERVICE NEWPORT/MOREHEAD CITY NC 1000 AM EST SAT DEC 16 2017 NOTE: "FAIR" INDICATES FEW OR NO CLOUDS BELOW 12,000 FEET WITH NO SIGNIFICANT WEATHER AND/OR OBSTRUCTIONS TO VISIBILITY NCZ015>017-031-032-045>047-102-103-161600- NORTH COAST CITY SKY/WX TMP DP RH WIND PRES REMARKS EDENTON SUNNY 41 26 54 NW3 30.28S ELIZABETH CITY SUNNY 40 25 55 W5 30.27R KITTY HAWK SUNNY 40 23 50 CALM 30.25S MANTEO SUNNY 39 24 54 N7 30.27S $$ NCZ045>047-081-094-103-104-161600- CENTRAL COAST CITY SKY/WX TMP DP RH WIND PRES REMARKS FRISCO SUNNY 43 29 57 MISG 30.28R $$ NCZ095-097-098-100-101-161600- SOUTHERN COAST CITY SKY/WX TMP DP RH WIND PRES REMARKS BEAUFORT MOSUNNY 43 24 47 N10 30.30R CEDAR ISLAND NOT AVBL JACKSONVILLE SUNNY 42 26 53 VRB3 30.31R PINEY ISLAND N/A N/A N/A N/A N9 30.29R WILMINGTON MOSUNNY 43 24 47 N7 30.33R $$ NCZ011>013-027>030-043-044-078>080-089-090>093-098-161600- COASTAL PLAIN CITY SKY/WX TMP DP RH WIND PRES REMARKS AHOSKIE SUNNY 37 24 59 CALM 30.29R CLINTON MOSUNNY 41 27 57 NW5 30.31S ELIZABETHTOWN NOT AVBL GOLDSBORO SUNNY 41 24 50 NW3 30.28R GREENVILLE SUNNY 41 23 48 NW3 30.29S HAVELOCK MOSUNNY 42 24 49 NW9 30.31R KENANSVILLE SUNNY 41 23 48 NW3 30.31S KINSTON SUNNY 36 25 64 W3 30.29S NEW BERN SUNNY 40 25 55 VRB6 30.31R RICHLANDS MOSUNNY 41 26 55 N3 30.32R ROCKY MOUNT SUNNY 39 25 57 W5 30.28R WASHINGTON SUNNY 40 24 51 NW5 30.29S WHITEVILLE MOSUNNY 42 25 51 NE3 30.32S $$ AMZ130-135-150-152-154-156-158-170-250-252-270-ANZ085-086-088-633-658-670-161600- MARINE OBSERVATIONS STATION/POSITION TIME TEMP WIND PRES WAVE SWELL AIR SEA DIR/SP/G HT/PER HT/PER (UTC) (F) (DEG/KT/KT) (MB) (FT/S) (FT/S) CHESAPEAKE LIGHT NOT AVBL 64 E VA BEACH 1450 43 57 330/ 14/ 17 1024.3 6/ 7 3/ 7 DUCK 1406 36 51 310/ 9/ 12 1024.0 2 E DUCK 1500 54 N/A 3/ 7 OREGON INLET 1406 39 46 320/ 8/ 10 1024.2 13E OREGON INLT 1448 59 N/A 5/ 8 5/ 8 HATTERAS CG 1406 39 52 340/ 12/ 14 1024.4 DIAMOND BUOY 1510 44 72 330/ 12/ 17 1025.3 CAPE LOOKOUT 1500 340/ 11/ 13 1026.1 BEAUFORT LAB 1406 38 51 350/ 6/ 9 1025.4 30 SE NEW RVR IN 1508 44 63 10/ 10/ 16 1026.2 30 SE NEW RVR IN 1500 64 N/A 4/ 4 27 SE WRIGHTSVLE 1508 45 63 360/ 12/ 17 1026.4 5 SE WRIGHTSVLE 1508 42 56 360/ 8/ 12 1026.3 225 S CAPE HAT 1450 64 74 350/ 12/ 14 1022.9 7/ 8 5/ 8 41 SE CHARLESTON 1510 53 72 30/ 12/ 16 1025.6 $$

USA.gov is the U.S. government's official web portal to all federal, state and local government web resources and services.